This is the latest recevied weather packets stored in our database for station/object W5HKR. If no packets are shown the sender has not sent any weather packets the latest 10 day(s).
| Time | Temp. | Humidity | Pressure | Rain* | Wind** | Luminosity | Snow |
|---|---|---|---|---|---|---|---|
| 1777751597 | 23.89° C | 44% | 992.4 hPa | 0 mm | - | - | - |
| 1777751297 | 18.33° C | 91% | 990.6 hPa | 0 mm | - | - | - |
| 1777750998 | 23.33° C | 49% | 992.5 hPa | 0 mm | - | - | - |
| 1777750789 | 18.33° C | 91% | 990.6 hPa | 0 mm | - | - | - |
| 1777750697 | 18.33° C | 91% | 990.6 hPa | 0 mm | - | - | - |
| 1777750398 | 24.44° C | 45% | 992.5 hPa | 0 mm | - | - | - |
| 1777750098 | 23.33° C | 47% | 992.5 hPa | 0 mm | - | - | - |
| 1777749797 | 18.33° C | 91% | 990.6 hPa | 0 mm | - | - | - |
| 1777749709 | 23.33° C | 46% | 992.5 hPa | 0 mm | - | - | - |
| 1777749497 | 18.33° C | 91% | 990.6 hPa | 0 mm | - | - | - |
| 1777749197 | 18.33° C | 91% | 990.6 hPa | 0 mm | - | - | - |
| 1777748898 | 23.33° C | 46% | 992.5 hPa | 0 mm | - | - | - |
| 1777748628 | 23.33° C | 45% | 992.5 hPa | 0 mm | - | - | - |
| 1777748598 | 23.33° C | 46% | 992.5 hPa | 0 mm | - | - | - |
| 1777748297 | 18.33° C | 91% | 990.6 hPa | 0 mm | - | - | - |
| 1777747997 | 18.33° C | 91% | 990.6 hPa | 0 mm | - | - | - |
| 1777747698 | 18.33° C | 91% | 990.6 hPa | 0 mm | - | - | - |
| 1777747549 | 22.78° C | 48% | 992.8 hPa | 0 mm | - | - | - |
| 1777747399 | 23.33° C | 46% | 993.4 hPa | 0 mm | - | - | - |
| 1777747098 | 18.33° C | 91% | 990.6 hPa | 0 mm | - | - | - |
| 1777746798 | 18.33° C | 91% | 990.6 hPa | 0 mm | - | - | - |
| 1777746469 | 22.78° C | 46% | 993.2 hPa | 0 mm | - | - | - |
| 1777746198 | 22.78° C | 44% | 992.5 hPa | 0 mm | - | - | - |
| 1777745898 | 22.22° C | 46% | 993.2 hPa | 0 mm | - | - | - |
| 1777745598 | 18.33° C | 91% | 990.6 hPa | 0 mm | - | - | - |
* Rain latest hour (hover to see other rain measurements)
** Current wind speed in m/s (hover to see current wind gust speed)